Volver al catálogo

JILIN-1 GAOFEN 07B 03 XING

ActivoCienciaSSO
NORAD 68695·PAYLOAD·🇨🇳 China
Este nombre de satélite aún no ha sido confirmado por fuentes oficiales.

Lanzado Apr 14, 2026 desde Jiuquan Satellite Launch Center

Loading…

Próximos Pases (próximas 24 horas)

TLE

ActualizadoSource: Space-Track

Época: Sep 14, 2026, 15:24 UTC

1 68695U 26080E   26257.64198719  .00004171  00000-0  26752-3 0  9995
2 68695  97.6570 333.1035 0017312 124.1415 236.1459 15.08938394 23117

Sigue JILIN-1 GAOFEN 07B 03 XING en tiempo real con AllMySat

Download on the App Store